Torna al catalogo

KUIPER-00145

AttivoComunicazioniLEO
NORAD 65767·PAYLOAD·🇺🇸 United States

Lanciato Sep 25, 2025 da Cape Canaveral Space Force Station

Loading…

Prossimi Passaggi (prossime 24 ore)

TLE

AggiornatoSource: CelesTrak SupGP

Epoca: Sep 14, 2026, 20:23 UTC

1 65767C 25217F   26257.84972222  .00000320  00000+0  41824-4 0  2570
2 65767  51.8988 281.6393 0000506  55.1862 358.1647 14.79930018    19

Traccia KUIPER-00145 in tempo reale con AllMySat

Download on the App Store